Time,TemperatureF,DewpointF,PressureIn,WindDirection,WindDirectionDegrees,WindSpeedMPH,WindSpeedGustMPH,Humidity,HourlyPrecipIn,Conditions,Clouds,dailyrainin,SoftwareType,DateUTC
2013-07-28 00:12:00,60.0,-99.9,-100.00,North,-999,-999.0,-999.0,-999,0.00,,,0.00,,2013-07-28 06:12:00,
2013-07-28 00:22:00,60.0,-99.9,-100.00,North,-999,-999.0,-999.0,-999,0.00,,,0.00,,2013-07-28 06:22:00,
2013-07-28 00:32:00,60.0,-99.9,-100.00,North,-999,-999.0,-999.0,-999,0.00,,,0.00,,2013-07-28 06:32:00,
2013-07-28 00:43:00,60.0,-99.9,-100.00,North,-999,-999.0,-999.0,-999,0.00,,,0.00,,2013-07-28 06:43:00,
2013-07-28 01:12:00,56.0,-99.9,-100.00,North,-999,-999.0,-999.0,-999,-99.99,,,0.00,,2013-07-28 07:12:00,
2013-07-28 01:23:00,56.0,-99.9,-100.00,North,-999,-999.0,-999.0,-999,-99.99,,,0.00,,2013-07-28 07:23:00,
2013-07-28 01:32:00,56.0,-99.9,-100.00,North,-999,-999.0,-999.0,-999,-99.99,,,0.00,,2013-07-28 07:32:00,
2013-07-28 01:43:00,56.0,-99.9,-100.00,North,-999,-999.0,-999.0,-999,-99.99,,,0.00,,2013-07-28 07:43:00,
2013-07-28 02:12:00,53.0,-99.9,-100.00,North,-999,-999.0,-999.0,-999,0.01,,,-99.99,,2013-07-28 08:12:00,
2013-07-28 02:23:00,53.0,-99.9,-100.00,North,-999,-999.0,-999.0,-999,0.01,,,-99.99,,2013-07-28 08:23:00,
2013-07-28 02:33:00,53.0,-99.9,-100.00,North,-999,-999.0,-999.0,-999,0.01,,,-99.99,,2013-07-28 08:33:00,
2013-07-28 02:43:00,53.0,-99.9,-100.00,North,-999,-999.0,-999.0,-999,0.01,,,-99.99,,2013-07-28 08:43:00,
2013-07-28 04:12:00,49.0,-99.9,-100.00,North,-999,-999.0,-999.0,-999,-99.99,,,0.00,,2013-07-28 10:12:00,
2013-07-28 04:22:00,49.0,-99.9,-100.00,North,-999,-999.0,-999.0,-999,-99.99,,,0.00,,2013-07-28 10:22:00,
2013-07-28 04:33:00,49.0,-99.9,-100.00,North,-999,-999.0,-999.0,-999,-99.99,,,0.00,,2013-07-28 10:33:00,
2013-07-28 04:42:00,49.0,-99.9,-100.00,North,-999,-999.0,-999.0,-999,-99.99,,,0.00,,2013-07-28 10:42:00,
2013-07-28 05:12:00,47.0,-99.9,-100.00,North,-999,-999.0,-999.0,-999,0.00,,,0.00,,2013-07-28 11:12:00,
2013-07-28 05:22:00,47.0,-99.9,-100.00,North,-999,-999.0,-999.0,-999,0.00,,,0.00,,2013-07-28 11:22:00,
2013-07-28 05:33:00,47.0,-99.9,-100.00,North,-999,-999.0,-999.0,-999,0.00,,,0.00,,2013-07-28 11:33:00,
2013-07-28 05:43:00,47.0,-99.9,-100.00,North,-999,-999.0,-999.0,-999,0.00,,,0.00,,2013-07-28 11:43:00,
2013-07-28 08:12:00,49.0,-99.9,-100.00,North,-999,-999.0,-999.0,-999,-99.99,,,0.00,,2013-07-28 14:12:00,
2013-07-28 08:23:00,49.0,-99.9,-100.00,North,-999,-999.0,-999.0,-999,-99.99,,,0.00,,2013-07-28 14:23:00,
2013-07-28 08:33:00,49.0,-99.9,-100.00,North,-999,-999.0,-999.0,-999,-99.99,,,0.00,,2013-07-28 14:33:00,
2013-07-28 08:43:00,49.0,-99.9,-100.00,North,-999,-999.0,-999.0,-999,-99.99,,,0.00,,2013-07-28 14:43:00,
2013-07-28 09:23:00,59.0,-99.9,-100.00,North,-999,-999.0,-999.0,-999,-99.99,,,0.00,,2013-07-28 15:23:00,
2013-07-28 09:33:00,59.0,-99.9,-100.00,North,-999,-999.0,-999.0,-999,-99.99,,,0.00,,2013-07-28 15:33:00,
2013-07-28 09:43:00,59.0,-99.9,-100.00,North,-999,-999.0,-999.0,-999,-99.99,,,0.00,,2013-07-28 15:43:00,
2013-07-28 11:23:00,69.0,-99.9,-100.00,North,-999,-999.0,-999.0,-999,-99.99,,,0.00,,2013-07-28 17:23:00,
2013-07-28 11:33:00,69.0,-99.9,-100.00,North,-999,-999.0,-999.0,-999,-99.99,,,0.00,,2013-07-28 17:33:00,
2013-07-28 11:44:00,69.0,-99.9,-100.00,North,-999,-999.0,-999.0,-999,-99.99,,,0.00,,2013-07-28 17:44:00,
2013-07-28 12:13:00,73.0,-99.9,-100.00,North,-999,-999.0,-999.0,-999,0.00,,,0.00,,2013-07-28 18:13:00,
2013-07-28 12:23:00,73.0,-99.9,-100.00,North,-999,-999.0,-999.0,-999,0.00,,,0.00,,2013-07-28 18:23:00,
2013-07-28 12:33:00,73.0,-99.9,-100.00,North,-999,-999.0,-999.0,-999,0.00,,,0.00,,2013-07-28 18:33:00,
2013-07-28 12:43:00,73.0,-99.9,-100.00,North,-999,-999.0,-999.0,-999,0.00,,,0.00,,2013-07-28 18:43:00,
2013-07-28 13:13:00,77.0,-99.9,-100.00,North,-999,-999.0,-999.0,-999,0.00,,,0.00,,2013-07-28 19:13:00,
2013-07-28 13:23:00,77.0,-99.9,-100.00,North,-999,-999.0,-999.0,-999,0.00,,,0.00,,2013-07-28 19:23:00,
2013-07-28 13:33:00,77.0,-99.9,-100.00,North,-999,-999.0,-999.0,-999,0.00,,,0.00,,2013-07-28 19:33:00,
2013-07-28 13:43:00,77.0,-99.9,-100.00,North,-999,-999.0,-999.0,-999,0.00,,,0.00,,2013-07-28 19:43:00,
2013-07-28 14:13:00,78.0,-99.9,-100.00,North,-999,-999.0,-999.0,-999,0.00,,,0.00,,2013-07-28 20:13:00,
2013-07-28 14:23:00,78.0,-99.9,-100.00,North,-999,-999.0,-999.0,-999,0.00,,,0.00,,2013-07-28 20:23:00,
2013-07-28 14:33:00,78.0,-99.9,-100.00,North,-999,-999.0,-999.0,-999,0.00,,,0.00,,2013-07-28 20:33:00,
2013-07-28 14:43:00,78.0,-99.9,-100.00,North,-999,-999.0,-999.0,-999,0.00,,,0.00,,2013-07-28 20:43:00,
2013-07-28 15:23:00,78.0,-99.9,-100.00,North,-999,-999.0,-999.0,-999,0.00,,,-99.99,,2013-07-28 21:23:00,
2013-07-28 15:33:00,78.0,-99.9,-100.00,North,-999,-999.0,-999.0,-999,0.00,,,-99.99,,2013-07-28 21:33:00,
2013-07-28 15:44:00,78.0,-99.9,-100.00,North,-999,-999.0,-999.0,-999,0.00,,,-99.99,,2013-07-28 21:44:00,
2013-07-28 16:02:00,80.0,-99.9,-100.00,North,-999,-999.0,-999.0,-999,0.00,,,-99.99,,2013-07-28 22:02:00,
2013-07-28 16:22:00,81.0,-99.9,-100.00,North,-999,-999.0,-999.0,-999,0.00,,,0.00,,2013-07-28 22:22:00,
2013-07-28 16:33:00,81.0,-99.9,-100.00,North,-999,-999.0,-999.0,-999,0.00,,,0.00,,2013-07-28 22:33:00,
2013-07-28 16:43:00,81.0,-99.9,-100.00,North,-999,-999.0,-999.0,-999,0.00,,,0.00,,2013-07-28 22:43:00,
2013-07-28 17:23:00,81.0,-99.9,-100.00,North,-999,-999.0,-999.0,-999,0.01,,,0.01,,2013-07-28 23:23:00,
2013-07-28 17:33:00,81.0,-99.9,-100.00,North,-999,-999.0,-999.0,-999,0.01,,,0.01,,2013-07-28 23:33:00,
2013-07-28 17:43:00,81.0,-99.9,-100.00,North,-999,-999.0,-999.0,-999,0.01,,,0.01,,2013-07-28 23:43:00,
2013-07-28 18:45:00,78.0,-99.9,-100.00,North,-999,-999.0,-999.0,-999,-99.99,,,-99.99,,2013-07-29 00:45:00,
2013-07-28 19:15:00,78.0,-99.9,-100.00,North,-999,-999.0,-999.0,-999,-99.99,,,-99.99,,2013-07-29 01:15:00,
2013-07-28 19:45:00,76.0,-99.9,-100.00,North,-999,-999.0,-999.0,-999,0.00,,,0.00,,2013-07-29 01:45:00,
2013-07-28 20:17:00,76.0,-99.9,-100.00,North,-999,-999.0,-999.0,-999,0.00,,,0.00,,2013-07-29 02:17:00,
2013-07-28 20:27:00,76.0,-99.9,-100.00,North,-999,-999.0,-999.0,-999,0.00,,,0.00,,2013-07-29 02:27:00,
2013-07-28 22:12:00,70.0,-99.9,-100.00,North,-999,-999.0,-999.0,-999,-99.99,,,-99.99,,2013-07-29 04:12:00,
2013-07-28 22:22:00,70.0,-99.9,-100.00,North,-999,-999.0,-999.0,-999,-99.99,,,-99.99,,2013-07-29 04:22:00,
2013-07-28 22:33:00,70.0,-99.9,-100.00,North,-999,-999.0,-999.0,-999,-99.99,,,-99.99,,2013-07-29 04:33:00,
2013-07-28 22:43:00,70.0,-99.9,-100.00,North,-999,-999.0,-999.0,-999,-99.99,,,-99.99,,2013-07-29 04:43:00,
2013-07-28 23:22:00,67.0,-99.9,-100.00,North,-999,-999.0,-999.0,-999,0.00,,,0.00,,2013-07-29 05:22:00,
2013-07-28 23:32:00,67.0,-99.9,-100.00,North,-999,-999.0,-999.0,-999,0.00,,,0.00,,2013-07-29 05:32:00,
2013-07-28 23:43:00,67.0,-99.9,-100.00,North,-999,-999.0,-999.0,-999,0.00,,,0.00,,2013-07-29 05:43:00,